[Date Prev][Date Next][Thread Prev][Thread Next] - [Date Index][Thread Index][Author Index]

2 Line ISS Keps 7-7



ISS
1 25544U 98067A   02188.13365741  .00024253  00000-0  31429-3 0  6376
2 25544  51.6388 312.8464 0007844 329.1559  18.8284 15.58703650207132


----
Via the sarex mailing list at AMSAT.ORG courtesy of AMSAT-NA.
To unsubscribe, send "unsubscribe sarex" to Majordomo@amsat.org



AMSAT Top AMSAT Home